Regional Weather Roundup
Issued by NWS

Home | Current Version | Previous Version | Text Only | Print | Product List | Glossary Off
Versions: 1 2 3 4 5 6 7 8 9 10 11 12 13 14 15 16 17 18 19 20 21 22 23 24 25 26 27 28 29 30 31 32 33 34 35 36 37 38 39 40 41 42 43 44 45 46 47 48 49 50

000
ASUS43 KLSX 280959
RWRMO

WEATHER SUMMARY FOR MISSOURI
NATIONAL WEATHER SERVICE SPRINGFIELD MO
500 AM CDT FRI JUL 28 2017

NOTE: "FAIR" INDICATES FEW OR NO CLOUDS BELOW 12,000 FEET WITH NO
       SIGNIFICANT WEATHER AND/OR OBSTRUCTIONS TO VISIBILITY.
       CURRENT SKY AND/OR WEATHER CONDITIONS ARE NOT AVAILABLE FOR
       CHILLICOTHE AND FARMINGTON.

MOZ001>031-035>038-043-044-053-054-281100-
...NORTHERN AND WESTERN MISSOURI...

CITY           SKY/WX    TMP DP  RH WIND       PRES   REMARKS
KANSAS CTY INT PTCLDY    71  68  90 NE7       29.96S
LEE`S SUMMIT   PTCLDY    73  72  96 NE6       29.96R
ST JOSEPH      MOCLDY    69  67  93 N6        29.97S
CHILLICOTHE      N/A     70  67  90 N3        29.98R
KIRKSVILLE     CLEAR     65  64  97 NE7       29.98R

$$
MOZ066>068-077>081-088>096-101>105-281100-
...SOUTHWEST MISSOURI...

CITY           SKY/WX    TMP DP  RH WIND       PRES   REMARKS
SPRINGFIELD    LGT RAIN  77  76  96 E3        29.91R
JOPLIN         CLOUDY    76  76 100 NE3       29.91R
BRANSON        CLOUDY    75  75 100 CALM      29.93R

$$
MOZ032>034-039>042-045>050-055>058-069>072-281100-
...CENTRAL MISSOURI...

CITY           SKY/WX    TMP DP  RH WIND       PRES   REMARKS
COLUMBIA       CLOUDY    73  71  93 NE8       29.92S
JEFFERSON CITY MOCLDY    76  74  93 NE8       29.91R
ROLLA          CLOUDY    72  72 100 N3        29.93R
SEDALIA        MOCLDY    73  73 100 N5        29.95R
WARRENSBURG    CLEAR     70  68  94 N3        29.94R
OSAGE BEACH    CLEAR     72  72 100 N3        29.93R

$$
MOZ051-052-059>065-281100-
...EAST CENTRAL MISSOURI...

CITY           SKY/WX    TMP DP  RH WIND       PRES   REMARKS
ST LOUIS INTL  CLOUDY    76  65  68 NE8       29.90R
SPIRIT OF STL  CLOUDY    74  69  85 NE7       29.88R
ST CHARLES     CLOUDY    74  70  87 N8        29.88S

$$
MOZ072>076-082>087-097>100-106>115-281100-
...SOUTH CENTRAL AND SOUTHEAST MISSOURI...

CITY           SKY/WX    TMP DP  RH WIND       PRES   REMARKS
CAPE GIRARDEAU CLOUDY    77  73  87 W7        29.83S
FARMINGTON     CLOUDY    75  73  93 N8        29.89R
POPLAR BLUFF   CLOUDY    77  77 100 NW5       29.84R
WEST PLAINS    CLOUDY    75  73  93 N3        29.92R

$$




USA.gov is the U.S. government's official web portal to all federal, state and local government web resources and services.